Location: Newark
(53.5596°N, 1.2370°W)
Time: 00:19:53
(UTC+00:00)

ISS - Pass Details

Date: 28 October 2019
Orbit: 412 x 421 km, 51.6° (Epoch: 15 November)

Event Time Altitude Azimuth Distance (km) Brightness Sun altitude
Exits shadow 04:43:04 12° 177° (S) 1,405 -1.1 -20.2°
Maximum altitude 04:44:45 16° 144° (SE) 1,207 -1.1 -19.9°
Drops below altitude 10° 04:46:52 10° 105° (ESE) 1,508 0.1 -19.6°
Sets 04:49:29 0° 83° (E) 2,348 1.7 -19.2°
